Location: Dortmund
(51.5019°N, 7.6520°E)
Time: 00:48:55
(UTC+02:00)

ISS - Pass Details

Date: 27 March 2019
Orbit: 408 x 410 km, 51.6° (Epoch: 22 April)

Event Time Altitude Azimuth Distance (km) Brightness Sun altitude
Rises 21:44:40 0° 277° (W) 2,339 0.9 -24.9°
Reaches altitude 10° 21:46:45 10° 277° (W) 1,476 -0.3 -25.1°
Enters shadow 21:48:14 24° 277° (W) 888 -1.6 -25.3°
